Zurück zum Katalog

COSMOS 1777

AktivMilitärLEO
NORAD 16952·PAYLOAD·🇷🇺 Russia

Gestartet Sep 10, 1986 von Plesetsk Cosmodrome

Loading…

Nächste Überflüge (nächste 24 Stunden)

TLE

AktuellSource: Space-Track

Epoche: Sep 14, 2026, 10:33 UTC

1 16952U 86070A   26257.43969223  .00000083  00000-0  38700-4 0  9997
2 16952  74.0058 319.1819 0024627  90.8928 269.5045 14.34112926 91653

Verfolge COSMOS 1777 in Echtzeit mit AllMySat

Download on the App Store